Regional Weather Roundup
Issued by NWS

Home | Current Version | Previous Version | Text Only | Print | Product List | Glossary On
Versions: 1 2 3 4 5 6 7 8 9 10 11 12 13 14 15 16 17 18 19 20 21 22 23 24 25 26 27
000
ASUS45 KREV 270310
RWRNV
NEVADA REGIONAL WEATHER ROUNDUP
NATIONAL WEATHER SERVICE RENO NV
800 PM PDT THU APR 26 2018

NOTE: "FAIR" INDICATES FEW OR NO CLOUDS BELOW 12,000 FEET WITH NO
SIGNIFICANT WEATHER AND/OR OBSTRUCTIONS TO VISIBILITY.

NVZ001-003-004-270400-
WESTERN NEVADA

CITY           SKY/WX    TMP DP  RH WIND       PRES   REMARKS
RENO           CLOUDY    73  32  22 W12       29.95F
CARSON CITY    MOCLDY    64  41  42 SW6       30.01R
MINDEN         MOCLDY    61  48  63 CALM      30.00S
FALLON         CLOUDY    79  30  16 S21       29.89R
LOVELOCK       PTCLDY    72  27  18 NE8       29.87S
HAWTHORNE      CLEAR     77  25  14 N15       29.88R
$$

NVZ002-CAZ072-073-270400-
NORTHERN AND CENTRAL SIERRA

CITY           SKY/WX    TMP DP  RH WIND       PRES   REMARKS
S. LAKE TAHOE  PTCLDY    57  38  48 CALM      30.06S
TRUCKEE        MOCLDY    52  46  82 E3        30.06S
SQUAW VLY 8000   N/A     46  36  66 S3          N/A
BLUE CANYON    PTCLDY    55  45  68 CALM      30.05F
MAMMOTH LAKES  FAIR      60  27  29 NW13G20   30.11R
BRIDGEPORT     CLOUDY    57  31  37 SW3       30.07R
$$

NVZ030-031-036-270400-
NORTHERN NEVADA

CITY           SKY/WX    TMP DP  RH WIND       PRES   REMARKS
ELKO           CLEAR     66  28  24 N6        30.01S
WINNEMUCCA     MOCLDY    70  27  20 NE9       29.93F
WENDOVER       CLEAR     66  22  18 CALM      30.06R
$$

NVZ035-037-270400-
CENTRAL NEVADA

CITY           SKY/WX    TMP DP  RH WIND       PRES   REMARKS
ELY            PTCLDY    65  20  17 SW6       30.07S
EUREKA           N/A     65  24  21 NW10      30.04R
$$

NVZ013-014-270400-
SOUTH CENTRAL NEVADA

CITY           SKY/WX    TMP DP  RH WIND       PRES   REMARKS
TONOPAH        CLEAR     72  16  12 SW10      29.99R
$$

NVZ017-020-022-270400-
SOUTHERN NEVADA

CITY           SKY/WX    TMP DP  RH WIND       PRES   REMARKS
LAS VEGAS      PTCLDY    91  24   9 E3        29.78S
N. LAS VEGAS   PTCLDY    89  16   7 E5        29.79S
NELLIS AFB     PTCLDY    88  19   8 NE5       29.77R
HENDERSON      CLEAR     86  26  11 SE6       29.83S
MERCURY        CLEAR     83  22  10 W9        29.86S
$$




USA.gov is the U.S. government's official web portal to all federal, state and local government web resources and services.